Retour au catalogue

STARLINK-11320

ActifCommunicationsVLEO
NORAD 61942·PAYLOAD·🇺🇸 United States

Lancé Nov 14, 2024 depuis Vandenberg Space Force Base

Loading…

Prochains Passages (prochaines 24 heures)

TLE

FraisSource: CelesTrak SupGP

Époque: Sep 15, 2026, 02:00 UTC

1 61942C 24209D   26258.08381944  .00007425  00000+0  61150-4 0  2581
2 61942  53.1568 157.9587 0001184  77.8777 143.2870 15.69709914    18

Suivez STARLINK-11320 en temps réel avec AllMySat

Download on the App Store